Wetterdaten: Woche 09.01.17 - 15.01.17 (KW2)
Datum Zeit Temp. I. Temp. A. Feuchte I. Feuchte A. Luftdruck Regen Wind Richtung Sonnenschein UV Solar Taupunkt Windchill Windben
09.01.2017 00:00 23,3 C -2,7 C 57 % 94 % 1031,6 hPa 0,0 l/m 0,0 km/h (0 Bft) N 0,00 h 0,0 UV-I 0 W/m -3,5 C -2,7 C 0,0 km/h (0 Bft)
09.01.2017 01:00 23,5 C -2,6 C 58 % 94 % 1031,5 hPa 0,0 l/m 0,0 km/h (0 Bft) N 0,00 h 0,0 UV-I 0 W/m -3,5 C -2,6 C 0,0 km/h (0 Bft)
09.01.2017 02:00 23,6 C -2,6 C 57 % 94 % 1031,3 hPa 0,0 l/m 0,0 km/h (0 Bft) N 0,00 h 0,0 UV-I 0 W/m -3,4 C -2,6 C 0,0 km/h (0 Bft)
09.01.2017 03:00 23,6 C -2,6 C 57 % 95 % 1030,9 hPa 0,0 l/m 0,0 km/h (0 Bft) N 0,00 h 0,0 UV-I 0 W/m -3,3 C -2,6 C 0,0 km/h (0 Bft)
09.01.2017 04:00 23,5 C -2,7 C 58 % 94 % 1030,7 hPa 0,0 l/m 0,0 km/h (0 Bft) N 0,00 h 0,0 UV-I 0 W/m -3,5 C -2,7 C 0,0 km/h (0 Bft)
09.01.2017 05:00 23,4 C -2,8 C 58 % 95 % 1030,4 hPa 0,0 l/m 0,0 km/h (0 Bft) N 0,00 h 0,0 UV-I 0 W/m -3,5 C -2,8 C 0,0 km/h (0 Bft)
09.01.2017 06:00 23,3 C -2,6 C 58 % 95 % 1029,8 hPa 0,0 l/m 0,0 km/h (0 Bft) N 0,00 h 0,0 UV-I 0 W/m -3,3 C -2,6 C 0,0 km/h (0 Bft)
09.01.2017 07:00 23,1 C -2,4 C 58 % 95 % 1029,6 hPa 0,0 l/m 0,0 km/h (0 Bft) N 0,00 h 0,0 UV-I 0 W/m -3,0 C -2,4 C 0,2 km/h (0 Bft)
09.01.2017 08:00 23,0 C -2,3 C 58 % 96 % 1029,3 hPa 0,0 l/m 0,1 km/h (0 Bft) W 0,00 h 0,0 UV-I 6 W/m -2,8 C -2,3 C 0,5 km/h (0 Bft)
09.01.2017 09:00 23,0 C -2,2 C 57 % 96 % 1029,3 hPa 0,0 l/m 0,1 km/h (0 Bft) W-SW 0,00 h 0,0 UV-I 16 W/m -2,7 C -2,2 C 0,6 km/h (0 Bft)
09.01.2017 10:00 22,8 C -2,0 C 55 % 96 % 1029,1 hPa 0,0 l/m 0,1 km/h (0 Bft) W-SW 0,00 h 0,0 UV-I 32 W/m -2,5 C -2,0 C 0,9 km/h (0 Bft)
09.01.2017 11:00 22,8 C -1,8 C 56 % 95 % 1028,4 hPa 0,0 l/m 0,4 km/h (0 Bft) W-SW 0,00 h 0,0 UV-I 46 W/m -2,4 C -1,8 C 1,6 km/h (1 Bft)
09.01.2017 12:00 22,8 C -1,5 C 56 % 94 % 1027,5 hPa 0,0 l/m 0,1 km/h (0 Bft) W-SW 0,00 h 0,0 UV-I 62 W/m -2,3 C -1,5 C 0,2 km/h (0 Bft)
09.01.2017 13:00 22,9 C -1,3 C 56 % 92 % 1026,7 hPa 0,0 l/m 0,3 km/h (0 Bft) S 0,00 h 0,0 UV-I 49 W/m -2,4 C -1,3 C 1,2 km/h (1 Bft)
09.01.2017 14:00 23,0 C -1,4 C 56 % 92 % 1026,1 hPa 0,0 l/m 0,9 km/h (0 Bft) S 0,00 h 0,0 UV-I 36 W/m -2,5 C -1,4 C 2,6 km/h (1 Bft)
09.01.2017 15:00 23,0 C -1,6 C 54 % 92 % 1025,6 hPa 0,0 l/m 0,7 km/h (0 Bft) S 0,00 h 0,0 UV-I 15 W/m -2,7 C -1,6 C 2,1 km/h (1 Bft)
09.01.2017 16:00 22,7 C -1,8 C 51 % 92 % 1025,2 hPa 0,0 l/m 0,5 km/h (0 Bft) S 0,00 h 0,0 UV-I 5 W/m -2,8 C -1,8 C 1,6 km/h (1 Bft)
09.01.2017 17:00 22,7 C -1,8 C 52 % 93 % 1024,8 hPa 0,0 l/m 0,5 km/h (0 Bft) SW 0,00 h 0,0 UV-I 0 W/m -2,8 C -1,8 C 1,8 km/h (1 Bft)
09.01.2017 18:00 23,1 C -2,0 C 54 % 93 % 1024,3 hPa 0,0 l/m 0,6 km/h (0 Bft) S 0,00 h 0,0 UV-I 0 W/m -3,0 C -2,0 C 2,1 km/h (1 Bft)
09.01.2017 19:00 23,2 C -2,1 C 55 % 90 % 1023,8 hPa 0,0 l/m 1,1 km/h (1 Bft) W-SW 0,00 h 0,0 UV-I 0 W/m -3,6 C -2,1 C 2,7 km/h (1 Bft)
09.01.2017 20:00 23,3 C -2,3 C 56 % 91 % 1023,3 hPa 0,0 l/m 0,2 km/h (0 Bft) S 0,00 h 0,0 UV-I 0 W/m -3,5 C -2,3 C 0,6 km/h (0 Bft)
09.01.2017 21:00 23,4 C -2,4 C 56 % 93 % 1022,4 hPa 0,0 l/m 1,2 km/h (1 Bft) S 0,00 h 0,0 UV-I 0 W/m -3,4 C -2,4 C 3,1 km/h (1 Bft)
09.01.2017 22:00 23,6 C -2,7 C 57 % 93 % 1021,6 hPa 0,0 l/m 2,6 km/h (1 Bft) S-SO 0,00 h 0,0 UV-I 0 W/m -3,6 C -2,7 C 5,4 km/h (1 Bft)
09.01.2017 23:00 23,7 C -2,7 C 56 % 93 % 1021,0 hPa 0,0 l/m 2,6 km/h (1 Bft) S 0,00 h 0,0 UV-I 0 W/m -3,7 C -2,7 C 5,3 km/h (1 Bft)
10.01.2017 00:00 23,3 C -2,7 C 56 % 93 % 1020,1 hPa 0,0 l/m 2,2 km/h (1 Bft) S-SO 0,00 h 0,0 UV-I 0 W/m -3,7 C -2,7 C 4,6 km/h (1 Bft)
10.01.2017 01:00 22,9 C -2,7 C 57 % 91 % 1019,3 hPa 0,0 l/m 2,5 km/h (1 Bft) S-SO 0,00 h 0,0 UV-I 0 W/m -4,1 C -2,7 C 5,2 km/h (1 Bft)
10.01.2017 02:00 22,7 C -2,7 C 57 % 88 % 1018,7 hPa 0,0 l/m 4,0 km/h (1 Bft) S 0,00 h 0,0 UV-I 0 W/m -4,3 C -2,8 C 7,7 km/h (2 Bft)
10.01.2017 03:00 22,6 C -2,8 C 57 % 90 % 1017,8 hPa 0,0 l/m 5,2 km/h (1 Bft) S-SO 0,00 h 0,0 UV-I 0 W/m -4,3 C -3,6 C 8,7 km/h (2 Bft)
10.01.2017 04:00 22,6 C -2,8 C 57 % 89 % 1017,0 hPa 0,0 l/m 4,5 km/h (1 Bft) S-SO 0,00 h 0,0 UV-I 0 W/m -4,4 C -3,0 C 7,7 km/h (2 Bft)
10.01.2017 05:00 22,4 C -2,9 C 57 % 88 % 1016,4 hPa 0,0 l/m 3,3 km/h (1 Bft) S-SO 0,00 h 0,0 UV-I 0 W/m -4,7 C -3,0 C 5,9 km/h (2 Bft)
10.01.2017 06:00 22,4 C -2,8 C 57 % 90 % 1015,8 hPa 0,0 l/m 4,9 km/h (1 Bft) S-SO 0,00 h 0,0 UV-I 0 W/m -4,2 C -3,1 C 8,1 km/h (2 Bft)
10.01.2017 07:00 22,3 C -2,8 C 57 % 86 % 1015,3 hPa 0,0 l/m 6,8 km/h (2 Bft) S-SO 0,00 h 0,0 UV-I 0 W/m -4,8 C -3,9 C 11,0 km/h (2 Bft)
10.01.2017 08:00 22,6 C -2,8 C 57 % 83 % 1015,1 hPa 0,0 l/m 5,5 km/h (1 Bft) S-SO 0,00 h 0,0 UV-I 14 W/m -5,2 C -3,3 C 9,1 km/h (2 Bft)
10.01.2017 09:00 22,8 C -2,6 C 58 % 82 % 1015,0 hPa 0,0 l/m 7,7 km/h (2 Bft) S-SO 0,00 h 0,0 UV-I 33 W/m -5,2 C -4,3 C 11,7 km/h (2 Bft)
10.01.2017 10:00 22,7 C -2,4 C 58 % 82 % 1015,0 hPa 0,0 l/m 8,4 km/h (2 Bft) S-SO 0,00 h 0,0 UV-I 48 W/m -5,1 C -4,7 C 12,5 km/h (3 Bft)
10.01.2017 11:00 22,8 C -2,4 C 58 % 81 % 1014,7 hPa 0,0 l/m 10,3 km/h (2 Bft) S-SO 0,00 h 0,5 UV-I 58 W/m -5,2 C -6,1 C 16,1 km/h (3 Bft)
10.01.2017 12:00 22,8 C -2,5 C 59 % 81 % 1014,0 hPa 0,0 l/m 8,1 km/h (2 Bft) SO 0,00 h 0,5 UV-I 69 W/m -5,4 C -4,5 C 12,6 km/h (3 Bft)
10.01.2017 13:00 22,8 C -2,5 C 58 % 81 % 1013,6 hPa 0,0 l/m 5,7 km/h (1 Bft) SO 0,00 h 0,0 UV-I 60 W/m -5,4 C -3,4 C 9,9 km/h (2 Bft)
10.01.2017 14:00 23,1 C -2,7 C 58 % 80 % 1013,4 hPa 0,0 l/m 4,7 km/h (1 Bft) SO 0,00 h 0,0 UV-I 48 W/m -5,7 C -3,0 C 8,1 km/h (2 Bft)
10.01.2017 15:00 23,2 C -2,8 C 58 % 79 % 1013,5 hPa 0,0 l/m 2,7 km/h (1 Bft) SO 0,00 h 0,0 UV-I 23 W/m -5,9 C -2,9 C 6,0 km/h (2 Bft)
10.01.2017 16:00 23,1 C -3,2 C 58 % 80 % 1013,8 hPa 0,0 l/m 2,5 km/h (1 Bft) O-SO 0,00 h 0,0 UV-I 7 W/m -6,2 C -3,2 C 5,7 km/h (1 Bft)
10.01.2017 17:00 23,0 C -3,8 C 59 % 82 % 1014,2 hPa 0,0 l/m 3,6 km/h (1 Bft) SO 0,00 h 0,0 UV-I 0 W/m -6,5 C -4,0 C 7,7 km/h (2 Bft)
10.01.2017 18:00 23,3 C -4,4 C 59 % 83 % 1014,4 hPa 0,0 l/m 2,9 km/h (1 Bft) O-SO 0,00 h 0,0 UV-I 0 W/m -6,8 C -4,5 C 6,6 km/h (2 Bft)
10.01.2017 19:00 23,2 C -5,3 C 60 % 84 % 1015,0 hPa 0,0 l/m 1,8 km/h (1 Bft) O-SO 0,00 h 0,0 UV-I 0 W/m -7,6 C -5,3 C 5,0 km/h (1 Bft)
10.01.2017 20:00 23,3 C -6,1 C 60 % 85 % 1015,7 hPa 0,0 l/m 0,9 km/h (0 Bft) O-SO 0,00 h 0,0 UV-I 0 W/m -8,2 C -6,1 C 2,5 km/h (1 Bft)
10.01.2017 21:00 23,6 C -6,4 C 59 % 87 % 1016,2 hPa 0,0 l/m 1,1 km/h (1 Bft) O-NO 0,00 h 0,0 UV-I 0 W/m -8,2 C -6,4 C 3,2 km/h (1 Bft)
10.01.2017 22:00 23,6 C -6,7 C 59 % 86 % 1016,3 hPa 0,0 l/m 3,8 km/h (1 Bft) O-NO 0,00 h 0,0 UV-I 0 W/m -8,6 C -6,7 C 8,0 km/h (2 Bft)
10.01.2017 23:00 23,4 C -7,1 C 60 % 87 % 1016,8 hPa 0,0 l/m 3,5 km/h (1 Bft) O-NO 0,00 h 0,0 UV-I 0 W/m -8,9 C -7,3 C 7,3 km/h (2 Bft)
11.01.2017 00:00 23,5 C -7,4 C 60 % 87 % 1017,4 hPa 0,0 l/m 3,6 km/h (1 Bft) O-NO 0,00 h 0,0 UV-I 0 W/m -9,2 C -7,7 C 7,1 km/h (2 Bft)
11.01.2017 01:00 23,5 C -7,6 C 59 % 87 % 1017,5 hPa 0,0 l/m 3,4 km/h (1 Bft) O 0,00 h 0,0 UV-I 0 W/m -9,3 C -7,6 C 6,8 km/h (2 Bft)
11.01.2017 02:00 23,4 C -7,9 C 60 % 87 % 1017,5 hPa 0,0 l/m 3,6 km/h (1 Bft) O-NO 0,00 h 0,0 UV-I 0 W/m -9,7 C -8,0 C 7,1 km/h (2 Bft)
11.01.2017 03:00 23,4 C -8,3 C 59 % 87 % 1017,6 hPa 0,0 l/m 4,6 km/h (1 Bft) O-NO 0,00 h 0,0 UV-I 0 W/m -10,1 C -8,4 C 9,0 km/h (2 Bft)
11.01.2017 04:00 23,4 C -8,6 C 59 % 87 % 1017,6 hPa 0,0 l/m 5,6 km/h (1 Bft) O-NO 0,00 h 0,0 UV-I 0 W/m -10,4 C -9,2 C 9,5 km/h (2 Bft)
11.01.2017 05:00 23,3 C -8,7 C 59 % 88 % 1017,6 hPa 0,0 l/m 1,7 km/h (1 Bft) O-NO 0,00 h 0,0 UV-I 0 W/m -10,3 C -8,7 C 3,4 km/h (1 Bft)
11.01.2017 06:00 23,2 C -8,5 C 59 % 88 % 1017,4 hPa 0,0 l/m 0,1 km/h (0 Bft) O-NO 0,00 h 0,0 UV-I 0 W/m -10,1 C -8,5 C 0,4 km/h (0 Bft)
11.01.2017 07:00 23,0 C -8,2 C 59 % 88 % 1017,6 hPa 0,0 l/m 0,7 km/h (0 Bft) SO 0,00 h 0,0 UV-I 0 W/m -9,8 C -8,2 C 1,7 km/h (1 Bft)
11.01.2017 08:00 23,2 C -7,5 C 59 % 90 % 1017,5 hPa 0,0 l/m 4,4 km/h (1 Bft) S-SO 0,00 h 0,0 UV-I 9 W/m -8,8 C -7,7 C 7,1 km/h (2 Bft)
11.01.2017 09:00 23,5 C -6,9 C 59 % 91 % 1017,6 hPa 0,0 l/m 5,9 km/h (2 Bft) S 0,00 h 0,0 UV-I 34 W/m -8,2 C -7,7 C 9,1 km/h (2 Bft)
11.01.2017 10:00 23,6 C -6,5 C 58 % 90 % 1017,3 hPa 0,0 l/m 6,1 km/h (2 Bft) S 0,00 h 0,0 UV-I 50 W/m -7,9 C -7,4 C 10,1 km/h (2 Bft)
11.01.2017 11:00 23,4 C -6,5 C 59 % 90 % 1015,8 hPa 0,0 l/m 8,7 km/h (2 Bft) S 0,00 h 0,5 UV-I 64 W/m -7,9 C -9,3 C 13,3 km/h (3 Bft)
11.01.2017 12:00 23,4 C -6,0 C 59 % 89 % 1014,5 hPa 0,0 l/m 6,1 km/h (2 Bft) S 0,00 h 0,5 UV-I 54 W/m -7,5 C -7,1 C 10,5 km/h (2 Bft)
11.01.2017 13:00 23,7 C -5,5 C 58 % 90 % 1012,8 hPa 0,0 l/m 4,4 km/h (1 Bft) S 0,00 h 0,0 UV-I 60 W/m -6,9 C -6,7 C 8,3 km/h (2 Bft)
11.01.2017 14:00 23,7 C -5,0 C 57 % 91 % 1011,1 hPa 0,0 l/m 8,5 km/h (2 Bft) S 0,00 h 0,0 UV-I 50 W/m -6,2 C -7,8 C 13,9 km/h (3 Bft)
11.01.2017 15:00 23,6 C -4,1 C 57 % 92 % 1009,6 hPa 0,0 l/m 7,7 km/h (2 Bft) S 0,00 h 0,0 UV-I 29 W/m -5,2 C -6,3 C 12,9 km/h (3 Bft)
11.01.2017 16:00 23,5 C -3,6 C 57 % 93 % 1008,1 hPa 0,2 l/m 8,3 km/h (2 Bft) S 0,00 h 0,0 UV-I 9 W/m -4,5 C -6,0 C 13,8 km/h (3 Bft)
11.01.2017 17:00 23,4 C -2,9 C 57 % 95 % 1007,5 hPa 0,6 l/m 10,9 km/h (2 Bft) S 0,00 h 0,0 UV-I 0 W/m -3,6 C -7,2 C 17,3 km/h (3 Bft)
11.01.2017 18:00 23,5 C -2,7 C 57 % 95 % 1007,1 hPa 0,2 l/m 8,4 km/h (2 Bft) S 0,00 h 0,0 UV-I 0 W/m -3,4 C -5,3 C 13,9 km/h (3 Bft)
11.01.2017 19:00 23,6 C -2,7 C 59 % 95 % 1007,0 hPa 0,2 l/m 3,6 km/h (1 Bft) SW 0,00 h 0,0 UV-I 0 W/m -3,4 C -2,8 C 7,2 km/h (2 Bft)
11.01.2017 20:00 23,6 C -2,4 C 60 % 96 % 1007,4 hPa 0,2 l/m 2,9 km/h (1 Bft) W-SW 0,00 h 0,0 UV-I 0 W/m -3,0 C -2,4 C 6,0 km/h (2 Bft)
11.01.2017 21:00 23,6 C -1,4 C 60 % 96 % 1007,8 hPa 0,0 l/m 2,5 km/h (1 Bft) W-SW 0,00 h 0,0 UV-I 0 W/m -1,9 C -1,5 C 5,7 km/h (1 Bft)
11.01.2017 22:00 23,7 C -0,6 C 60 % 97 % 1008,2 hPa 0,2 l/m 3,9 km/h (1 Bft) W-SW 0,00 h 0,0 UV-I 0 W/m -1,1 C -1,4 C 6,9 km/h (2 Bft)
11.01.2017 23:00 23,4 C 0,4 C 60 % 97 % 1008,7 hPa 0,0 l/m 4,8 km/h (1 Bft) W-SW 0,00 h 0,0 UV-I 0 W/m -0,0 C -0,1 C 8,5 km/h (2 Bft)
12.01.2017 00:00 23,3 C 0,8 C 60 % 97 % 1009,4 hPa 0,0 l/m 6,6 km/h (2 Bft) W-SW 0,00 h 0,0 UV-I 0 W/m 0,4 C -0,3 C 12,1 km/h (2 Bft)
12.01.2017 01:00 23,6 C 1,2 C 60 % 95 % 1009,9 hPa 0,0 l/m 8,7 km/h (2 Bft) W 0,00 h 0,0 UV-I 0 W/m 0,6 C -1,0 C 14,2 km/h (3 Bft)
12.01.2017 02:00 23,7 C 1,4 C 60 % 93 % 1010,6 hPa 0,0 l/m 12,3 km/h (3 Bft) W 0,00 h 0,0 UV-I 0 W/m 0,5 C -3,3 C 20,0 km/h (4 Bft)
12.01.2017 03:00 23,7 C 1,4 C 60 % 92 % 1011,3 hPa 0,0 l/m 10,1 km/h (2 Bft) W-SW 0,00 h 0,0 UV-I 0 W/m 0,2 C -1,9 C 17,2 km/h (3 Bft)
12.01.2017 04:00 23,6 C 1,2 C 60 % 94 % 1011,6 hPa 0,0 l/m 10,5 km/h (2 Bft) W 0,00 h 0,0 UV-I 0 W/m 0,3 C -2,3 C 16,8 km/h (3 Bft)
12.01.2017 05:00 23,4 C 1,3 C 60 % 92 % 1011,9 hPa 0,0 l/m 12,8 km/h (3 Bft) W 0,00 h 0,0 UV-I 0 W/m 0,1 C -4,0 C 20,2 km/h (4 Bft)
12.01.2017 06:00 23,4 C 1,4 C 60 % 90 % 1012,3 hPa 0,0 l/m 9,9 km/h (2 Bft) W-SW 0,00 h 0,0 UV-I 0 W/m -0,0 C -1,8 C 15,4 km/h (3 Bft)
12.01.2017 07:00 23,3 C 1,4 C 60 % 91 % 1012,9 hPa 0,0 l/m 11,1 km/h (2 Bft) W-SW 0,00 h 0,0 UV-I 0 W/m 0,0 C -2,6 C 17,7 km/h (3 Bft)
12.01.2017 08:00 23,1 C 1,4 C 60 % 90 % 1013,1 hPa 0,0 l/m 14,2 km/h (3 Bft) W-SW 0,00 h 0,0 UV-I 22 W/m -0,1 C -4,6 C 22,1 km/h (4 Bft)
12.01.2017 09:00 23,2 C 1,6 C 60 % 88 % 1013,3 hPa 0,0 l/m 14,7 km/h (3 Bft) W-SW 0,00 h 0,0 UV-I 69 W/m -0,1 C -4,7 C 23,0 km/h (4 Bft)
12.01.2017 10:00 23,3 C 1,8 C 60 % 87 % 1013,4 hPa 0,0 l/m 13,3 km/h (3 Bft) W-SW 0,00 h 0,6 UV-I 110 W/m -0,1 C -3,6 C 20,8 km/h (4 Bft)
12.01.2017 11:00 23,4 C 2,2 C 61 % 86 % 1013,4 hPa 0,0 l/m 11,9 km/h (2 Bft) W-SW 0,50 h 0,8 UV-I 153 W/m 0,0 C -2,2 C 18,5 km/h (3 Bft)
12.01.2017 12:00 23,4 C 2,3 C 60 % 85 % 1012,5 hPa 0,0 l/m 12,0 km/h (2 Bft) W-SW 0,33 h 0,8 UV-I 142 W/m -0,0 C -2,2 C 19,3 km/h (3 Bft)
12.01.2017 13:00 23,4 C 2,3 C 60 % 85 % 1011,9 hPa 0,0 l/m 10,8 km/h (2 Bft) W-SW 0,00 h 0,6 UV-I 92 W/m 0,1 C -1,4 C 17,8 km/h (3 Bft)
12.01.2017 14:00 23,3 C 2,4 C 57 % 85 % 1011,2 hPa 0,0 l/m 6,1 km/h (2 Bft) W-SW 0,00 h 0,0 UV-I 59 W/m 0,2 C 1,2 C 10,8 km/h (2 Bft)
12.01.2017 15:00 23,1 C 2,4 C 56 % 85 % 1010,5 hPa 0,0 l/m 4,5 km/h (1 Bft) SW 0,00 h 0,0 UV-I 29 W/m 0,2 C 2,1 C 9,3 km/h (2 Bft)
12.01.2017 16:00 23,0 C 2,2 C 56 % 86 % 1009,6 hPa 0,0 l/m 5,7 km/h (1 Bft) W-SW 0,00 h 0,0 UV-I 9 W/m 0,1 C 1,5 C 10,5 km/h (2 Bft)
12.01.2017 17:00 23,4 C 1,9 C 57 % 88 % 1008,7 hPa 0,0 l/m 3,4 km/h (1 Bft) SW 0,00 h 0,0 UV-I 0 W/m 0,1 C 1,8 C 7,8 km/h (2 Bft)
12.01.2017 18:00 23,5 C 1,6 C 58 % 91 % 1007,5 hPa 0,0 l/m 4,7 km/h (1 Bft) S 0,00 h 0,0 UV-I 0 W/m 0,2 C 1,2 C 8,8 km/h (2 Bft)
12.01.2017 19:00 23,4 C 1,3 C 58 % 92 % 1005,9 hPa 0,0 l/m 3,3 km/h (1 Bft) S-SO 0,00 h 0,0 UV-I 0 W/m 0,1 C 1,2 C 6,1 km/h (2 Bft)
12.01.2017 20:00 23,4 C 1,2 C 57 % 92 % 1004,1 hPa 0,0 l/m 2,5 km/h (1 Bft) S-SO 0,00 h 0,0 UV-I 0 W/m 0,0 C 1,1 C 5,5 km/h (1 Bft)
12.01.2017 21:00 23,5 C 1,0 C 58 % 93 % 1002,1 hPa 0,0 l/m 4,9 km/h (1 Bft) S-SO 0,00 h 0,0 UV-I 0 W/m -0,0 C 0,8 C 8,6 km/h (2 Bft)
12.01.2017 22:00 23,6 C 0,9 C 58 % 95 % 999,8 hPa 0,2 l/m 5,2 km/h (1 Bft) SO 0,00 h 0,0 UV-I 0 W/m 0,2 C 0,6 C 8,9 km/h (2 Bft)
12.01.2017 23:00 23,5 C 0,8 C 58 % 95 % 997,7 hPa 1,2 l/m 2,8 km/h (1 Bft) SO 0,00 h 0,0 UV-I 0 W/m 0,1 C 0,8 C 5,9 km/h (2 Bft)
13.01.2017 00:00 23,6 C 1,0 C 59 % 96 % 996,1 hPa 1,0 l/m 8,1 km/h (2 Bft) S-SO 0,00 h 0,0 UV-I 0 W/m 0,4 C -1,2 C 13,8 km/h (3 Bft)
13.01.2017 01:00 23,8 C 1,1 C 59 % 96 % 994,6 hPa 1,2 l/m 12,0 km/h (2 Bft) S 0,00 h 0,0 UV-I 0 W/m 0,5 C -3,6 C 18,6 km/h (3 Bft)
13.01.2017 02:00 23,7 C 1,5 C 61 % 96 % 993,3 hPa 0,2 l/m 17,9 km/h (3 Bft) S 0,00 h 0,0 UV-I 0 W/m 0,9 C -6,5 C 26,9 km/h (4 Bft)
13.01.2017 03:00 23,7 C 2,2 C 60 % 96 % 992,3 hPa 0,4 l/m 17,4 km/h (3 Bft) S 0,00 h 0,0 UV-I 0 W/m 1,5 C -5,4 C 27,5 km/h (4 Bft)
13.01.2017 04:00 23,6 C 2,1 C 59 % 94 % 991,4 hPa 0,0 l/m 17,1 km/h (3 Bft) S 0,00 h 0,0 UV-I 0 W/m 1,3 C -5,4 C 26,6 km/h (4 Bft)
13.01.2017 05:00 23,5 C 2,3 C 59 % 89 % 991,1 hPa 0,0 l/m 18,3 km/h (3 Bft) S-SW 0,00 h 0,0 UV-I 0 W/m 0,6 C -5,7 C 30,0 km/h (5 Bft)
13.01.2017 06:00 23,4 C 2,3 C 59 % 83 % 991,1 hPa 0,0 l/m 22,3 km/h (4 Bft) W-SW 0,00 h 0,0 UV-I 0 W/m -0,3 C -7,3 C 34,1 km/h (5 Bft)
13.01.2017 07:00 23,3 C 2,2 C 59 % 77 % 991,8 hPa 0,0 l/m 27,4 km/h (4 Bft) W-SW 0,00 h 0,0 UV-I 0 W/m -1,5 C -9,2 C 44,5 km/h (6 Bft)
13.01.2017 08:00 23,3 C 1,7 C 58 % 78 % 992,9 hPa 0,0 l/m 28,7 km/h (4 Bft) W-SW 0,00 h 0,0 UV-I 11 W/m -1,8 C -10,5 C 45,7 km/h (6 Bft)
13.01.2017 09:00 23,5 C 1,2 C 58 % 80 % 993,3 hPa 0,0 l/m 28,2 km/h (4 Bft) W-SW 0,00 h 0,0 UV-I 34 W/m -1,8 C -10,9 C 45,6 km/h (6 Bft)
13.01.2017 10:00 23,5 C 0,4 C 57 % 89 % 994,1 hPa 0,0 l/m 20,6 km/h (4 Bft) W-SW 0,00 h 0,0 UV-I 34 W/m -1,2 C -9,1 C 34,4 km/h (5 Bft)
13.01.2017 11:00 23,4 C -0,0 C 58 % 94 % 995,1 hPa 0,2 l/m 19,7 km/h (3 Bft) W-SW 0,00 h 0,5 UV-I 58 W/m -0,9 C -9,3 C 31,0 km/h (5 Bft)
13.01.2017 12:00 23,7 C -0,0 C 58 % 94 % 996,3 hPa 0,2 l/m 18,4 km/h (3 Bft) W-SW 0,00 h 0,5 UV-I 77 W/m -0,9 C -8,6 C 29,4 km/h (5 Bft)
13.01.2017 13:00 23,8 C 0,1 C 57 % 93 % 997,6 hPa 0,0 l/m 17,0 km/h (3 Bft) W-SW 0,00 h 0,0 UV-I 45 W/m -0,9 C -7,8 C 26,9 km/h (4 Bft)
13.01.2017 14:00 23,5 C 0,3 C 54 % 91 % 998,4 hPa 0,0 l/m 17,5 km/h (3 Bft) W 0,00 h 0,0 UV-I 49 W/m -1,1 C -7,9 C 26,8 km/h (4 Bft)
13.01.2017 15:00 23,3 C 0,3 C 52 % 87 % 999,7 hPa 0,0 l/m 14,8 km/h (3 Bft) W 0,00 h 0,0 UV-I 17 W/m -1,6 C -6,2 C 23,2 km/h (4 Bft)
13.01.2017 16:00 23,3 C 0,2 C 52 % 86 % 1000,7 hPa 0,0 l/m 14,0 km/h (3 Bft) W 0,00 h 0,0 UV-I 6 W/m -1,9 C -6,0 C 21,4 km/h (4 Bft)
13.01.2017 17:00 23,2 C 0,0 C 54 % 87 % 1001,4 hPa 0,0 l/m 11,6 km/h (2 Bft) W-SW 0,00 h 0,0 UV-I 0 W/m -1,9 C -4,4 C 18,4 km/h (3 Bft)
13.01.2017 18:00 23,3 C -0,3 C 55 % 89 % 1001,7 hPa 0,0 l/m 12,6 km/h (3 Bft) W 0,00 h 0,0 UV-I 0 W/m -1,9 C -5,5 C 19,5 km/h (3 Bft)
13.01.2017 19:00 23,5 C -0,4 C 56 % 89 % 1002,2 hPa 0,0 l/m 9,7 km/h (2 Bft) W 0,00 h 0,0 UV-I 0 W/m -1,9 C -3,4 C 15,1 km/h (3 Bft)
13.01.2017 20:00 23,4 C -0,6 C 57 % 91 % 1002,8 hPa 0,0 l/m 5,9 km/h (2 Bft) W-SW 0,00 h 0,0 UV-I 0 W/m -1,9 C -1,1 C 11,0 km/h (2 Bft)
13.01.2017 21:00 23,5 C -0,7 C 57 % 92 % 1002,9 hPa 0,0 l/m 9,8 km/h (2 Bft) W 0,00 h 0,0 UV-I 0 W/m -1,8 C -3,9 C 15,9 km/h (3 Bft)
13.01.2017 22:00 23,7 C -0,8 C 57 % 91 % 1003,5 hPa 0,0 l/m 6,0 km/h (2 Bft) W-SW 0,00 h 0,0 UV-I 0 W/m -2,0 C -1,6 C 10,9 km/h (2 Bft)
13.01.2017 23:00 23,7 C -1,0 C 57 % 89 % 1004,0 hPa 0,0 l/m 8,6 km/h (2 Bft) W-SW 0,00 h 0,0 UV-I 0 W/m -2,5 C -3,6 C 14,8 km/h (3 Bft)
14.01.2017 00:00 23,3 C -1,9 C 58 % 85 % 1004,0 hPa 0,0 l/m 8,4 km/h (2 Bft) W-SW 0,00 h 0,0 UV-I 0 W/m -4,0 C -4,3 C 14,6 km/h (3 Bft)
14.01.2017 01:00 23,0 C -2,4 C 58 % 86 % 1003,7 hPa 0,0 l/m 6,3 km/h (2 Bft) S 0,00 h 0,0 UV-I 0 W/m -4,4 C -3,4 C 10,9 km/h (2 Bft)
14.01.2017 02:00 22,8 C -2,2 C 58 % 88 % 1003,2 hPa 0,0 l/m 9,0 km/h (2 Bft) S 0,00 h 0,0 UV-I 0 W/m -3,9 C -5,0 C 14,9 km/h (3 Bft)
14.01.2017 03:00 22,7 C -2,2 C 58 % 90 % 1002,6 hPa 0,0 l/m 9,0 km/h (2 Bft) S 0,00 h 0,0 UV-I 0 W/m -3,7 C -5,1 C 14,8 km/h (3 Bft)
14.01.2017 04:00 22,6 C -2,3 C 58 % 93 % 1001,9 hPa 0,2 l/m 9,6 km/h (2 Bft) SW 0,00 h 0,0 UV-I 0 W/m -3,3 C -5,4 C 16,4 km/h (3 Bft)
14.01.2017 05:00 22,5 C -2,0 C 58 % 94 % 1001,4 hPa 0,4 l/m 8,2 km/h (2 Bft) SW 0,00 h 0,0 UV-I 0 W/m -2,9 C -4,1 C 14,1 km/h (3 Bft)
14.01.2017 06:00 22,4 C -1,6 C 58 % 96 % 1001,6 hPa 0,2 l/m 8,1 km/h (2 Bft) SW 0,00 h 0,0 UV-I 0 W/m -2,2 C -3,4 C 14,1 km/h (3 Bft)
14.01.2017 07:00 22,4 C -0,9 C 58 % 96 % 1002,0 hPa 0,2 l/m 6,6 km/h (2 Bft) SW 0,00 h 0,0 UV-I 0 W/m -1,4 C -1,8 C 12,3 km/h (3 Bft)
14.01.2017 08:00 22,5 C -0,2 C 58 % 96 % 1002,7 hPa 0,2 l/m 6,3 km/h (2 Bft) W-SW 0,00 h 0,0 UV-I 7 W/m -0,8 C -1,3 C 11,1 km/h (2 Bft)
14.01.2017 09:00 22,6 C 0,2 C 59 % 96 % 1003,8 hPa 0,0 l/m 7,1 km/h (2 Bft) W-SW 0,00 h 0,0 UV-I 28 W/m -0,4 C -1,3 C 12,0 km/h (2 Bft)
14.01.2017 10:00 22,8 C 0,8 C 60 % 94 % 1004,9 hPa 0,0 l/m 8,7 km/h (2 Bft) W 0,15 h 0,0 UV-I 104 W/m -0,1 C -1,6 C 13,9 km/h (3 Bft)
14.01.2017 11:00 22,8 C 1,0 C 60 % 93 % 1005,8 hPa 0,6 l/m 11,3 km/h (2 Bft) W-NW 0,30 h 0,6 UV-I 133 W/m 0,0 C -3,1 C 17,5 km/h (3 Bft)
14.01.2017 12:00 22,9 C 1,0 C 60 % 94 % 1006,5 hPa 0,2 l/m 9,6 km/h (2 Bft) W-NW 0,27 h 0,6 UV-I 115 W/m 0,1 C -2,0 C 15,4 km/h (3 Bft)
14.01.2017 13:00 23,1 C 1,2 C 60 % 91 % 1007,6 hPa 0,2 l/m 12,2 km/h (2 Bft) W-NW 0,32 h 0,7 UV-I 104 W/m -0,1 C -3,7 C 17,1 km/h (3 Bft)
14.01.2017 14:00 22,9 C 0,5 C 59 % 92 % 1008,6 hPa 0,6 l/m 14,3 km/h (3 Bft) W-NW 0,00 h 0,0 UV-I 75 W/m -0,6 C -5,6 C 22,0 km/h (4 Bft)
14.01.2017 15:00 22,9 C 0,4 C 59 % 87 % 1009,9 hPa 0,0 l/m 12,0 km/h (2 Bft) W-NW 0,00 h 0,0 UV-I 60 W/m -1,5 C -4,4 C 18,1 km/h (3 Bft)
14.01.2017 16:00 22,9 C -0,2 C 59 % 86 % 1010,7 hPa 0,0 l/m 7,9 km/h (2 Bft) W-NW 0,00 h 0,0 UV-I 10 W/m -2,2 C -2,0 C 12,0 km/h (2 Bft)
14.01.2017 17:00 22,7 C -0,9 C 58 % 88 % 1011,4 hPa 0,0 l/m 3,4 km/h (1 Bft) W 0,00 h 0,0 UV-I 0 W/m -2,7 C -1,0 C 7,1 km/h (2 Bft)
14.01.2017 18:00 22,9 C -1,3 C 59 % 88 % 1012,2 hPa 0,0 l/m 1,1 km/h (1 Bft) S-SW 0,00 h 0,0 UV-I 0 W/m -2,9 C -1,3 C 2,7 km/h (1 Bft)
14.01.2017 19:00 23,1 C -1,4 C 59 % 91 % 1012,6 hPa 0,0 l/m 4,3 km/h (1 Bft) SW 0,00 h 0,0 UV-I 0 W/m -2,7 C -1,6 C 8,5 km/h (2 Bft)
14.01.2017 20:00 23,0 C -1,1 C 60 % 90 % 1012,9 hPa 0,0 l/m 5,3 km/h (1 Bft) SW 0,00 h 0,0 UV-I 0 W/m -2,5 C -1,6 C 10,2 km/h (2 Bft)
14.01.2017 21:00 23,3 C -1,3 C 61 % 90 % 1012,8 hPa 0,0 l/m 4,8 km/h (1 Bft) S 0,00 h 0,0 UV-I 0 W/m -2,7 C -1,6 C 8,8 km/h (2 Bft)
14.01.2017 22:00 23,3 C -1,6 C 61 % 92 % 1012,8 hPa 0,0 l/m 4,1 km/h (1 Bft) SW 0,00 h 0,0 UV-I 0 W/m -2,7 C -1,6 C 8,4 km/h (2 Bft)
14.01.2017 23:00 23,4 C -1,7 C 61 % 93 % 1012,7 hPa 0,2 l/m 4,4 km/h (1 Bft) SW 0,00 h 0,0 UV-I 0 W/m -2,6 C -1,9 C 8,6 km/h (2 Bft)
15.01.2017 00:00 23,1 C -1,7 C 61 % 94 % 1012,7 hPa 0,0 l/m 6,3 km/h (2 Bft) W-SW 0,00 h 0,0 UV-I 0 W/m -2,5 C -2,9 C 12,0 km/h (2 Bft)
15.01.2017 01:00 22,8 C -1,6 C 61 % 93 % 1013,0 hPa 0,0 l/m 6,8 km/h (2 Bft) W-SW 0,00 h 0,0 UV-I 0 W/m -2,6 C -2,9 C 11,9 km/h (2 Bft)
15.01.2017 02:00 22,9 C -1,7 C 61 % 93 % 1013,5 hPa 0,0 l/m 3,4 km/h (1 Bft) W-SW 0,00 h 0,0 UV-I 0 W/m -2,7 C -1,7 C 6,7 km/h (2 Bft)
15.01.2017 03:00 23,0 C -1,8 C 61 % 92 % 1013,8 hPa 0,0 l/m 4,5 km/h (1 Bft) W 0,00 h 0,0 UV-I 0 W/m -2,9 C -2,0 C 8,7 km/h (2 Bft)
15.01.2017 04:00 23,1 C -1,8 C 61 % 94 % 1014,1 hPa 0,0 l/m 4,4 km/h (1 Bft) W 0,00 h 0,0 UV-I 0 W/m -2,7 C -2,0 C 8,0 km/h (2 Bft)
15.01.2017 05:00 23,0 C -1,9 C 61 % 93 % 1014,5 hPa 0,0 l/m 5,4 km/h (1 Bft) W-SW 0,00 h 0,0 UV-I 0 W/m -2,8 C -2,2 C 10,4 km/h (2 Bft)
15.01.2017 06:00 23,0 C -2,0 C 60 % 93 % 1015,0 hPa 0,2 l/m 3,9 km/h (1 Bft) W-SW 0,00 h 0,0 UV-I 0 W/m -2,9 C -2,1 C 8,0 km/h (2 Bft)
15.01.2017 07:00 22,8 C -2,3 C 60 % 93 % 1015,8 hPa 0,0 l/m 3,4 km/h (1 Bft) W-SW 0,00 h 0,0 UV-I 0 W/m -3,2 C -2,3 C 6,6 km/h (2 Bft)
15.01.2017 08:00 22,7 C -2,3 C 60 % 93 % 1016,5 hPa 0,2 l/m 4,4 km/h (1 Bft) W-SW 0,00 h 0,0 UV-I 9 W/m -3,2 C -2,8 C 6,9 km/h (2 Bft)
15.01.2017 09:00 22,7 C -2,3 C 61 % 93 % 1017,2 hPa 0,0 l/m 1,1 km/h (1 Bft) W-SW 0,00 h 0,0 UV-I 36 W/m -3,3 C -2,3 C 3,0 km/h (1 Bft)
15.01.2017 10:00 22,7 C -1,7 C 61 % 92 % 1017,7 hPa 0,0 l/m 3,4 km/h (1 Bft) W-SW 0,00 h 0,5 UV-I 64 W/m -2,9 C -1,8 C 6,7 km/h (2 Bft)
15.01.2017 11:00 22,9 C -1,4 C 62 % 89 % 1017,9 hPa 0,0 l/m 5,7 km/h (1 Bft) W-SW 0,00 h 0,5 UV-I 78 W/m -3,0 C -2,1 C 10,5 km/h (2 Bft)
15.01.2017 12:00 23,1 C -1,3 C 63 % 88 % 1018,0 hPa 0,0 l/m 5,9 km/h (2 Bft) W-SW 0,00 h 0,5 UV-I 86 W/m -3,0 C -2,1 C 10,7 km/h (2 Bft)
15.01.2017 13:00 23,0 C -1,2 C 63 % 88 % 1018,0 hPa 0,0 l/m 7,4 km/h (2 Bft) W-SW 0,25 h 0,6 UV-I 124 W/m -2,9 C -2,6 C 12,5 km/h (3 Bft)
15.01.2017 14:00 22,8 C -1,1 C 62 % 88 % 1018,3 hPa 0,0 l/m 5,1 km/h (1 Bft) W-NW 0,33 h 0,5 UV-I 110 W/m -2,9 C -2,1 C 8,8 km/h (2 Bft)
15.01.2017 15:00 22,4 C -1,2 C 55 % 82 % 1018,6 hPa 0,0 l/m 5,5 km/h (1 Bft) W 0,28 h 0,0 UV-I 97 W/m -3,8 C -2,0 C 9,2 km/h (2 Bft)
15.01.2017 16:00 22,4 C -2,3 C 57 % 86 % 1019,1 hPa 0,0 l/m 1,7 km/h (1 Bft) W-SW 0,00 h 0,0 UV-I 12 W/m -4,4 C -2,3 C 3,8 km/h (1 Bft)
15.01.2017 17:00 22,7 C -2,9 C 58 % 90 % 1019,4 hPa 0,6 l/m 3,5 km/h (1 Bft) W-NW 0,00 h 0,0 UV-I 0 W/m -4,3 C -3,4 C 5,8 km/h (2 Bft)
15.01.2017 18:00 22,8 C -3,8 C 60 % 91 % 1019,7 hPa 0,0 l/m 0,0 km/h (0 Bft) N 0,00 h 0,0 UV-I 0 W/m -5,1 C -3,8 C 0,1 km/h (0 Bft)
15.01.2017 19:00 22,9 C -5,0 C 61 % 91 % 1019,9 hPa 0,0 l/m 0,0 km/h (0 Bft) N 0,00 h 0,0 UV-I 0 W/m -6,2 C -5,0 C 0,0 km/h (0 Bft)
15.01.2017 20:00 22,9 C -5,6 C 61 % 92 % 1020,1 hPa 0,0 l/m 0,6 km/h (0 Bft) O 0,00 h 0,0 UV-I 0 W/m -6,6 C -5,6 C 1,3 km/h (1 Bft)
15.01.2017 21:00 23,1 C -5,4 C 61 % 94 % 1020,2 hPa 0,0 l/m 0,0 km/h (0 Bft) N 0,00 h 0,0 UV-I 0 W/m -6,2 C -5,4 C 0,0 km/h (0 Bft)
15.01.2017 22:00 23,2 C -4,7 C 60 % 94 % 1020,2 hPa 0,0 l/m 0,0 km/h (0 Bft) N 0,00 h 0,0 UV-I 0 W/m -5,4 C -4,7 C 0,0 km/h (0 Bft)
15.01.2017 23:00 23,3 C -4,7 C 60 % 94 % 1020,5 hPa 0,0 l/m 0,0 km/h (0 Bft) N 0,00 h 0,0 UV-I 0 W/m -5,5 C -4,7 C 0,0 km/h (0 Bft)
Min-Datum _ 15.01.17 11.01.17 09.01.17 13.01.17 13.01.17 - 09.01.17 - - - - 11.01.17 11.01.17 09.01.17
_ Min-Zeit 15:27 04:41 16:28 07:36 05:59 - 00:00 - - - - 04:41 11:16 00:00
Minimum _ 22,0 C -8,8 C 41 % 75 % 990,7 hPa - 0,0 km/h (0 Bft) - - - - -10,6 C -15,9 C 0,0 km/h (0 Bft)
Max-Datum _ 11.01.17 12.01.17 15.01.17 11.01.17 09.01.17 12.01.17 13.01.17 - 14.01.17 12.01.17 15.01.17 13.01.17 12.01.17 13.01.17
_ Max-Zeit 13:56 12:44 12:07 21:38 00:00 23:00 08:26 - 13:11 11:25 14:38 03:30 15:06 07:10
Maximum _ 23,9 C 2,6 C 63 % 97 % 1031,7 hPa 1,2 l/m 43,5 km/h
W-SW (6 Bft)
- 0,03 h 1,0 UV-I 380 W/m 1,8 C 2,6 C 83,7 km/h
W-SW (9 Bft)
Durchschnitt _ 23,2 C -1,8 C 58 % 90 % 1012,4 hPa #10,2 l/m 6,5 km/h (2 Bft) W-SW #2:44 h 0,6 UV-I 52 W/m -3,2 C -3,6 C 10,9 km/h (2 Bft)